Location: Ar Ranvel
(48.3000°N, 4.8833°W)
Time: 09:18:15
(UTC+00:00)

Terra - Pass Details

Date: 16 June 2021
Orbit: 701 x 703 km, 98.2° (Epoch: 27 July)

Event Time Altitude Azimuth Distance (km) Brightness Sun altitude
Exits shadow 21:05:48 - 125° (SE) 2,418 3.9 -6.2°
Reaches altitude 10° 21:06:30 10° 121° (ESE) 2,170 3.7 -6.2°
Maximum altitude 21:10:30 28° 64° (ENE) 1,322 3.1 -6.7°
Drops below altitude 10° 21:14:32 10° 6° (N) 2,183 5.0 -7.1°
Sets 21:17:03 0° 355° (N) 3,106 6.1 -7.4°
